Vorticity
11 10 6 4 5 8 9 9 11 13 11 5 7 12 10 10 4 1 6 7 7 7 7 7 7 7 6 6 6 7 7 7 8 7 7 7 7 7 5 5 5 6 7 6 6 5 6 7 5 4 7 9 8 6 5 5 8 9 7 10 11 9 8 8 9 9 9 7 9 11 12 14 14 9 6 8 12 17 16 14 10 6 1 -1 14 18 5 5
12 12 9 4 4 7 9 10 10 11 9 5 10 13 11 9 2 2 7 7 6 6 7 7 6 6 5 6 6 6 6 6 8 7 8 7 6 6 5 5 5 7 6 5 5 5 7 6 4 6 8 9 7 6 6 2 8 10 7 8 7 7 6 6 6 6 8 8 8 10 12 12 13 14 9 5 10 14 15 15 10 5 1 -1 14 18 9 9
10 13 12 5 3 6 9 10 10 10 8 8 13 13 12 8 1 4 7 6 7 7 7 7 6 6 5 5 5 5 5 6 7 6 7 7 6 5 5 5 5 6 4 4 5 4 6 5 4 7 6 7 8 9 8 7 11 9 5 6 7 9 6 4 5 4 6 7 7 8 11 12 12 16 14 6 4 10 15 14 11 8 6 10 16 11 8 9
9 11 13 8 3 3 7 10 11 11 10 13 14 12 12 5 1 6 7 6 7 7 7 7 5 5 5 5 4 5 5 4 5 7 6 6 6 5 6 6 6 5 4 5 5 4 4 3 5 7 5 6 6 6 9 12 14 9 5 5 8 9 5 3 5 4 5 6 6 7 8 12 14 15 17 12 5 6 10 12 12 10 10 15 13 6 9 8
7 9 13 11 5 2 5 8 11 13 14 15 11 11 11 3 2 7 6 7 7 7 6 5 5 4 5 4 3 5 5 4 4 6 7 5 5 5 5 6 5 4 5 5 4 4 3 3 4 4 6 7 5 3 7 11 12 10 5 4 6 6 5 5 5 5 6 6 7 7 8 10 12 12 14 15 10 6 6 7 11 10 10 13 8 4 8 9
6 8 11 13 9 2 3 6 8 11 14 12 8 12 10 1 4 7 6 7 6 6 5 4 4 3 3 3 3 4 4 5 3 4 7 6 6 6 5 6 5 4 5 5 4 4 2 4 4 4 6 8 7 4 7 10 7 8 6 6 7 5 8 8 6 6 4 5 6 7 9 10 9 9 11 12 12 10 8 5 9 11 8 9 7 5 7 8
6 7 9 13 12 6 3 4 5 8 11 9 8 13 8 1 6 7 6 6 5 4 3 4 4 3 3 3 4 4 3 5 4 3 4 4 5 6 6 6 5 5 6 5 5 3 3 5 4 4 6 8 10 5 8 8 0 8 11 8 9 8 11 10 7 7 3 3 4 4 7 9 8 7 9 10 11 11 11 7 6 11 12 9 7 6 6 6
4 6 8 11 13 11 6 4 4 6 9 8 10 13 6 2 7 7 5 5 4 4 2 3 3 3 3 1 3 3 3 4 3 3 3 3 3 4 5 5 5 6 6 5 5 4 4 5 4 4 5 8 10 6 9 5 -2 9 10 6 11 13 14 10 6 5 5 5 4 3 4 7 9 8 8 8 11 10 10 10 6 7 13 12 9 6 7 10
4 5 7 9 11 12 9 6 5 6 9 8 12 13 5 3 7 6 5 3 3 2 2 2 2 3 2 -0 1 1 3 3 2 2 3 3 3 2 4 4 5 6 6 5 5 6 5 4 4 4 3 8 10 6 8 5 2 6 7 8 10 11 13 10 6 3 3 5 4 5 5 6 9 9 10 8 8 9 8 13 11 6 9 10 8 5 7 11
5 5 7 9 10 12 10 9 8 7 9 9 13 12 4 4 7 5 4 3 2 2 1 1 1 3 2 1 0 0 2 2 2 3 3 2 3 3 3 3 5 6 5 6 7 7 5 3 5 4 4 10 8 6 8 6 3 5 9 11 7 7 11 11 10 5 2 4 3 4 7 8 9 9 11 10 7 6 7 12 14 10 7 8 8 3 4 11
7 5 7 9 9 10 10 10 10 10 10 10 14 11 3 4 6 5 4 2 2 1 1 1 1 2 1 2 0 0 4 3 3 4 3 3 3 2 2 3 4 5 5 9 9 6 5 5 7 5 5 8 6 6 10 4 1 7 8 6 6 6 8 12 13 7 4 5 0 0 5 8 11 10 9 11 9 5 5 8 13 14 10 7 8 4 2 10
9 6 7 8 9 9 10 10 11 11 11 12 15 10 3 3 4 5 3 2 2 1 1 1 1 2 2 3 1 1 4 4 4 4 3 4 4 3 3 4 5 4 6 10 9 6 6 7 7 6 5 6 7 9 8 1 1 7 5 4 8 4 6 13 11 6 3 7 4 -3 2 6 9 13 9 9 11 8 5 5 10 15 14 10 9 7 3 5
10 7 8 8 9 9 9 10 11 11 11 14 14 8 3 2 2 3 3 2 2 2 2 2 2 3 3 3 3 3 4 4 4 4 5 4 4 4 4 4 5 4 6 9 7 6 7 7 6 8 7 5 6 7 3 1 4 5 3 6 6 2 10 13 6 3 0 6 9 -1 1 3 3 12 12 8 10 10 7 6 9 14 17 14 11 10 6 1
12 8 8 8 9 9 8 9 10 10 11 14 12 7 4 3 2 2 2 2 3 3 3 4 4 4 4 4 4 5 5 6 5 5 6 5 5 5 4 5 5 4 7 10 7 6 7 6 7 9 8 3 3 8 5 2 2 1 3 5 3 3 12 13 5 3 0 2 7 3 2 2 1 8 12 10 11 11 8 6 7 12 16 15 12 12 12 8
12 10 9 9 8 8 8 8 9 10 10 12 10 7 5 4 3 3 3 3 3 3 4 4 4 3 4 5 6 4 4 5 5 5 5 5 5 5 5 5 6 5 8 9 7 7 7 7 8 9 8 3 5 12 6 1 2 3 4 2 2 4 9 14 9 3 -0 -2 4 7 2 0 4 7 8 9 10 12 11 8 6 8 14 17 14 7 6 10
12 11 10 9 9 8 8 8 8 8 8 9 8 6 5 5 5 4 4 3 3 4 3 3 3 4 4 5 6 4 3 4 5 6 5 5 5 6 6 5 6 6 7 9 8 7 8 8 8 9 9 5 7 11 4 2 4 2 0 1 5 3 3 11 10 4 -0 -3 4 9 3 2 8 9 7 6 8 11 13 13 8 4 8 14 16 9 1 3
12 12 11 10 9 8 8 7 7 7 6 6 5 5 4 4 4 4 3 3 3 3 3 3 3 4 4 5 5 4 4 4 5 6 7 8 6 6 7 6 7 7 7 9 8 8 8 9 8 8 9 6 8 11 7 5 2 -2 1 5 6 1 2 6 9 13 10 4 4 5 4 4 8 10 9 6 7 9 11 16 14 5 5 7 11 13 9 7
8 10 11 11 10 9 8 7 7 7 6 5 5 5 4 3 4 3 3 3 3 3 3 4 4 4 4 5 6 6 6 6 6 7 8 9 8 8 7 7 8 7 9 10 9 9 8 8 8 8 9 7 11 13 8 4 -0 0 4 6 5 1 2 6 10 14 11 8 5 3 4 3 6 7 4 5 8 11 10 14 19 12 8 6 5 8 10 12
6 7 8 10 11 10 10 8 7 7 7 6 5 5 4 4 4 3 4 4 5 5 4 5 5 5 5 6 6 7 9 10 10 9 9 9 9 9 9 9 9 9 10 10 9 9 7 8 9 10 10 7 9 6 2 2 -0 1 4 5 4 -1 3 8 11 10 7 10 8 5 3 2 6 1 -2 3 8 18 15 11 20 17 10 9 7 6 5 9
7 7 7 8 9 10 11 10 9 8 7 7 6 6 6 6 5 5 5 5 5 4 5 7 7 7 8 10 11 11 12 12 10 9 9 10 10 11 12 11 11 11 10 10 11 10 8 10 12 12 9 3 0 -2 1 4 0 4 6 4 1 -2 6 10 6 3 3 8 8 5 5 5 4 -1 2 6 8 22 19 9 17 17 12 11 9 10 7 5
6 6 7 6 6 7 8 9 10 10 9 9 8 8 7 7 6 6 7 8 8 7 8 9 10 11 11 12 13 12 13 12 11 11 10 10 12 12 12 12 11 11 10 11 10 8 8 8 9 9 6 3 1 3 11 8 2 7 6 2 -1 1 9 7 1 2 4 11 10 4 5 7 6 6 11 10 9 18 10 -1 7 9 9 10 8 10 10 8
7 6 7 7 7 7 6 7 7 8 9 9 10 10 10 10 9 8 9 9 12 12 10 12 13 12 11 10 10 9 10 12 12 12 12 12 13 11 10 11 12 12 12 10 8 7 8 7 8 9 7 8 8 9 12 6 3 9 6 1 1 5 10 6 6 11 10 15 10 -0 4 10 9 7 5 4 7 13 4 -4 1 4 6 7 7 8 8 10
7 7 7 7 8 8 8 8 8 8 8 7 7 8 8 9 9 10 10 8 10 10 10 11 11 11 11 10 10 9 8 10 10 11 11 12 11 9 9 10 11 11 9 7 7 7 8 9 10 10 7 8 9 7 5 2 7 12 6 0 1 6 11 9 7 9 8 9 4 3 11 13 5 -1 -2 1 5 12 13 9 6 5 7 6 6 8 6 7
8 8 9 8 7 8 8 8 9 9 9 9 9 9 9 8 8 7 7 8 9 9 8 9 9 11 11 8 8 9 8 10 9 9 9 9 9 8 8 9 10 9 6 6 7 6 6 7 7 8 7 8 9 7 6 8 12 12 5 2 6 7 8 6 4 5 7 3 2 11 17 11 -0 -6 1 5 4 9 15 18 14 7 9 11 9 9 7 6
9 10 11 11 10 9 9 9 9 9 8 9 9 10 11 11 11 10 10 10 9 9 8 9 10 9 8 8 9 9 9 10 9 8 8 8 9 7 7 8 8 8 6 6 7 7 8 9 9 10 9 8 10 10 10 11 13 11 6 7 9 2 1 6 6 8 7 -0 5 15 11 7 2 -2 8 11 7 6 6 15 22 15 13 16 12 10 9 8
8 9 9 11 11 10 10 11 12 12 11 10 9 10 10 10 11 12 11 9 10 11 9 9 11 9 9 8 8 9 8 8 8 8 8 9 8 6 7 7 10 12 9 8 10 9 11 11 11 12 12 11 12 12 10 9 13 11 5 8 6 -2 2 11 12 11 5 -0 7 11 7 9 8 6 14 14 8 4 2 10 18 15 12 13 8 6 7 8
8 7 7 7 7 8 8 9 10 11 12 13 12 12 13 12 11 11 11 10 12 13 10 9 8 8 13 11 8 10 9 7 10 9 8 9 8 8 9 7 10 12 9 9 11 10 10 12 12 12 11 11 10 9 6 7 13 7 1 7 4 0 10 14 11 9 2 0 6 9 10 10 6 6 9 8 6 4 4 10 13 10 8 9 9 9 9 9
12 11 10 9 8 7 7 6 7 8 9 11 11 11 12 14 14 13 12 12 13 12 12 11 7 6 11 13 13 13 10 8 10 11 10 9 8 8 10 10 12 13 12 11 10 10 10 10 12 11 9 8 7 6 7 12 15 6 4 10 3 3 14 12 8 6 1 4 12 11 8 5 5 5 1 4 10 6 4 10 15 13 8 6 9 12 13 10
15 15 16 15 14 13 11 9 7 6 6 8 9 9 9 12 15 15 13 13 12 12 12 11 10 9 7 8 13 13 12 12 9 11 13 11 9 9 11 16 18 17 17 14 11 13 11 8 11 14 10 5 2 7 17 22 17 6 6 10 3 -0 8 12 7 1 3 9 9 1 -2 3 5 2 0 9 15 10 8 11 13 14 9 7 12 16 16 10
14 15 16 17 18 17 16 15 13 10 7 6 6 8 9 11 13 15 15 13 10 9 10 8 8 10 7 5 7 9 11 13 11 10 11 13 14 13 15 17 16 16 15 13 14 12 8 7 11 15 12 7 6 13 22 24 14 5 5 8 3 -6 3 17 9 -0 9 10 -0 -5 -2 3 3 2 5 13 14 11 9 8 10 12 10 8 13 18 19 15
11 12 13 14 17 18 18 16 16 16 14 11 8 7 9 12 11 13 14 11 9 9 9 10 7 6 8 6 6 9 10 10 12 11 12 15 13 11 13 13 13 14 13 14 16 12 9 10 12 16 19 19 20 16 13 13 10 3 2 3 -3 -7 6 15 2 -1 9 6 0 3 2 1 5 8 9 9 10 9 7 9 14 16 13 10 12 17 20 18
10 10 9 10 12 15 19 18 14 15 17 16 14 10 8 8 9 12 12 9 11 11 8 9 6 4 8 7 6 10 11 10 10 8 10 13 9 7 10 10 11 11 11 17 17 12 12 10 10 15 15 13 15 13 7 9 18 19 16 15 9 11 20 11 -2 5 8 2 5 6 2 4 7 6 8 10 10 10 11 14 15 14 11 10 11 14 17 16
9 9 8 8 9 10 16 21 17 14 15 15 14 11 7 5 7 9 9 8 8 8 9 11 8 7 7 8 9 8 6 8 7 4 8 10 7 9 9 7 9 7 10 19 17 13 9 3 4 3 1 7 12 12 7 4 16 21 17 18 16 20 26 10 -2 6 7 2 3 1 1 5 3 3 9 8 6 9 12 11 10 10 12 14 13 12 12 11
8 8 8 7 9 8 10 18 21 16 12 14 13 9 6 5 5 7 8 7 5 5 8 9 7 8 7 8 11 10 6 7 6 4 8 8 6 10 10 7 9 9 14 21 19 13 4 1 5 -6 -5 16 17 7 2 -1 6 7 4 11 11 12 19 10 -0 4 7 6 2 -1 2 1 1 8 9 2 2 9 11 10 12 13 14 17 15 11 10 8
6 9 9 7 9 9 7 12 20 19 13 13 13 9 7 5 4 6 7 6 4 3 5 4 2 4 6 8 12 12 8 7 6 4 6 8 7 9 12 10 9 11 14 16 17 14 1 -1 5 -5 -1 21 15 0 -1 4 12 4 -4 6 8 7 11 3 1 6 5 4 3 1 2 0 4 10 5 0 5 10 12 12 14 15 16 18 17 16 14 8
7 8 10 8 9 10 7 7 14 19 15 12 12 11 9 6 5 5 5 5 6 4 3 4 3 4 6 7 9 12 10 8 8 6 6 10 9 8 13 13 10 14 16 10 10 14 5 0 7 4 6 12 5 2 5 13 23 11 -0 12 10 2 6 2 1 9 7 3 3 1 1 3 7 7 3 4 8 9 12 14 14 17 21 20 19 20 17 11
9 8 8 8 10 11 10 6 8 16 18 14 12 11 10 8 7 7 4 3 6 5 4 4 4 3 3 5 8 12 12 11 12 11 8 8 7 6 9 10 7 10 17 12 6 9 7 5 9 5 3 4 4 9 9 9 13 4 1 19 14 -3 3 6 -3 -2 1 1 2 4 4 5 5 5 4 6 8 9 11 20 21 13 8 9 13 15 14 13
11 9 7 7 9 12 13 11 7 10 16 17 15 13 12 10 9 9 6 4 4 4 5 4 2 1 2 6 11 13 11 9 8 9 9 4 4 6 4 6 6 3 7 10 7 7 8 8 7 0 1 9 10 8 8 10 16 13 8 13 11 1 -1 2 -3 -1 5 6 6 8 6 3 3 6 7 6 8 8 10 21 22 5 0 8 13 15 15 13
11 10 8 6 6 9 14 16 14 10 11 15 17 16 14 11 12 12 11 8 4 3 5 5 2 4 8 8 11 15 16 12 5 4 7 0 2 9 3 1 7 5 5 11 10 9 10 9 6 1 2 10 13 5 -1 2 5 10 11 7 7 5 -3 -2 3 6 8 6 5 8 4 3 6 6 8 6 7 9 9 15 14 7 10 15 15 18 17 10
12 11 9 8 5 5 6 10 14 16 15 14 14 15 16 15 14 14 13 12 8 5 7 7 4 5 7 5 9 15 19 17 7 2 3 -3 -4 5 5 2 5 4 3 8 11 9 10 10 5 3 4 5 15 15 4 -2 -6 -5 4 5 7 10 3 4 9 4 2 1 2 7 4 4 5 1 5 9 6 9 8 6 9 11 14 13 11 15 15 11
13 11 10 10 8 5 4 3 4 10 15 15 13 13 14 17 18 18 18 17 13 6 7 9 8 7 5 2 6 12 16 16 9 5 6 2 -1 2 6 9 8 4 3 6 11 8 8 13 5 3 10 2 3 14 12 6 2 2 8 4 8 20 12 5 9 8 9 7 1 3 2 2 1 -6 2 10 6 9 7 0 5 9 10 9 9 12 14 14
11 10 8 9 9 8 8 6 3 2 6 11 13 13 12 13 16 19 19 20 19 13 8 8 9 9 7 4 5 8 11 10 6 7 7 6 10 7 4 8 8 5 5 5 10 8 6 14 5 -3 10 7 -5 3 11 5 -5 -2 10 4 -2 8 7 3 4 1 3 4 1 3 2 0 -3 -7 2 9 8 10 5 -1 5 6 5 11 12 12 14 13
12 10 9 9 8 7 8 9 8 4 2 4 7 10 11 10 10 13 15 16 19 19 16 12 8 7 6 6 8 7 7 4 -1 2 5 6 14 14 6 8 7 3 4 3 7 8 6 18 14 -7 -2 11 6 1 2 5 -1 -5 10 14 1 -2 1 5 6 -1 -2 -1 -2 1 -0 -3 -2 1 5 7 8 9 2 1 7 2 4 15 14 11 12 10
12 11 10 11 10 10 11 11 12 11 9 6 4 4 6 8 8 9 10 10 12 13 15 16 15 12 7 4 7 7 7 6 1 0 4 3 9 12 8 9 6 0 1 0 3 3 0 13 24 7 -7 1 12 10 -1 0 4 -3 -0 10 9 2 -1 2 7 8 9 6 -0 1 2 1 3 6 6 6 8 7 2 4 7 3 7 15 12 11 9 5
9 9 9 11 11 12 14 14 14 16 15 12 8 6 6 6 5 6 7 7 9 9 9 13 15 17 15 8 5 4 3 6 5 2 4 2 2 7 8 9 6 -1 -1 1 3 5 0 3 16 17 5 -3 2 11 8 4 8 6 1 0 3 2 -1 0 4 5 4 2 1 0 -0 2 6 8 10 10 7 5 4 5 5 9 16 15 9 9 6 3
8 9 9 10 10 10 10 11 12 15 15 13 11 11 11 10 8 7 7 6 9 11 10 12 12 13 17 16 12 9 5 4 5 4 4 4 2 3 5 7 7 1 0 3 5 8 8 5 5 7 10 7 -3 -3 4 4 4 9 8 5 5 4 -2 -3 3 4 2 1 0 -0 -1 -0 2 5 5 3 2 5 4 1 7 15 17 13 9 7 4 5
9 9 8 8 9 8 6 6 7 9 12 12 13 12 11 12 12 10 9 7 7 9 9 12 13 11 14 17 17 16 13 9 8 6 4 4 5 5 4 4 6 5 5 4 2 1 4 7 6 2 5 10 4 -4 -2 1 0 2 4 4 8 11 7 0 -1 -0 2 2 2 5 5 -2 -1 8 9 2 1 6 2 1 11 11 4 10 15 8 4 6
10 10 10 9 9 8 6 6 5 4 5 5 7 8 7 8 11 10 11 10 9 9 8 7 8 9 9 11 13 17 19 17 15 11 7 4 3 4 4 3 4 4 4 4 4 2 1 2 4 3 0 3 5 2 1 2 2 3 2 -1 -0 7 11 10 6 -0 -3 -3 -2 2 3 1 7 18 19 12 7 4 2 4 8 1 -2 12 19 9 6 9
9 10 11 11 10 10 9 10 9 8 8 7 6 6 5 5 7 7 7 8 7 7 8 8 8 9 9 9 8 11 15 19 20 18 15 11 5 2 1 1 2 3 2 2 2 2 4 5 5 5 4 2 1 3 4 4 3 3 4 2 -2 -0 2 5 8 7 4 0 -1 0 3 7 12 10 5 8 9 2 -0 2 5 4 7 16 14 8 11 12
10 10 11 11 11 11 11 11 11 11 11 12 10 9 8 7 9 10 8 9 9 7 5 6 7 8 10 11 12 13 13 15 18 20 21 22 19 11 3 -2 -4 -1 2 2 1 0 1 3 1 3 8 8 2 -0 3 5 3 0 3 5 2 1 0 -2 -1 4 9 9 7 7 5 6 11 5 -3 3 8 3 -1 4 11 12 13 14 9 4 10 12
10 10 11 11 10 11 12 11 10 10 10 11 11 10 9 8 9 13 13 12 14 15 14 13 11 10 9 9 10 14 15 16 18 19 18 22 26 24 17 10 0 -6 -4 -1 1 2 2 3 3 1 5 12 10 3 -0 3 4 -1 0 7 9 5 4 4 2 4 8 10 10 13 12 8 12 12 5 4 8 7 4 7 12 9 8 12 8 3 9 10
9 9 9 10 9 10 11 11 11 12 11 11 13 13 13 11 9 10 13 14 14 15 18 20 20 19 18 15 11 10 11 12 14 15 14 15 20 23 23 22 17 9 1 -2 -2 -2 -2 2 5 3 4 9 12 10 6 7 8 3 5 14 15 10 9 9 9 8 7 5 7 13 14 9 6 6 5 3 5 7 7 8 10 6 4 8 5 4 11 10
Height
5871 5872 5873 5874 5874 5875 5876 5877 5878 5879 5880 5881 5882 5883 5884 5885 5887 5888 5888 5889 5890 5891 5891 5892 5892 5893 5893 5894 5894 5895 5895 5895 5895 5896 5896 5896 5896 5896 5896 5897 5897 5897 5898 5898 5898 5898 5898 5899 5899 5898 5898 5898 5898 5898 5898 5897 5898 5898 5898 5898 5898 5897 5897 5896 5896 5895 5896 5895 5895 5895 5894 5894 5895 5895 5895 5895 5895 5895 5895 5896 5896 5896 5895 5895 5895 5895 5895 5896
5870 5871 5872 5873 5874 5875 5875 5876 5877 5878 5879 5880 5881 5882 5884 5885 5886 5887 5888 5889 5890 5890 5891 5892 5892 5893 5894 5894 5894 5895 5895 5895 5896 5896 5896 5896 5896 5896 5897 5897 5897 5898 5898 5898 5898 5898 5899 5899 5899 5899 5899 5899 5899 5898 5898 5898 5899 5899 5899 5898 5898 5897 5897 5896 5895 5895 5895 5895 5895 5895 5894 5894 5894 5895 5895 5895 5895 5896 5896 5896 5896 5896 5895 5895 5894 5894 5895 5896
5869 5870 5871 5872 5873 5874 5875 5876 5876 5877 5878 5880 5881 5882 5883 5884 5886 5887 5888 5889 5889 5890 5891 5892 5892 5893 5894 5894 5894 5895 5895 5895 5896 5896 5896 5896 5896 5897 5897 5897 5898 5898 5898 5898 5899 5899 5899 5899 5899 5899 5900 5899 5899 5899 5899 5899 5899 5899 5899 5898 5898 5897 5896 5895 5895 5895 5895 5895 5895 5895 5895 5895 5894 5895 5895 5895 5895 5896 5896 5896 5896 5895 5894 5894 5894 5894 5894 5895
5868 5869 5870 5871 5873 5874 5874 5875 5876 5877 5878 5879 5880 5881 5883 5884 5885 5887 5887 5888 5889 5890 5891 5892 5892 5893 5894 5894 5895 5895 5895 5896 5896 5896 5896 5897 5897 5897 5897 5898 5898 5898 5898 5899 5899 5899 5899 5899 5899 5900 5900 5900 5900 5900 5899 5899 5899 5899 5899 5898 5898 5897 5896 5895 5895 5895 5895 5895 5895 5895 5895 5895 5895 5894 5894 5894 5895 5895 5895 5896 5895 5895 5894 5894 5894 5895 5894 5895
5868 5869 5870 5871 5872 5873 5874 5874 5875 5876 5877 5878 5879 5881 5882 5884 5885 5886 5887 5888 5889 5890 5891 5892 5892 5893 5894 5894 5895 5895 5895 5896 5896 5896 5896 5897 5897 5897 5898 5898 5898 5898 5899 5899 5899 5899 5899 5899 5899 5900 5900 5900 5899 5899 5899 5899 5899 5899 5899 5898 5898 5897 5896 5895 5895 5895 5895 5895 5895 5895 5895 5895 5895 5894 5894 5894 5894 5894 5894 5895 5895 5895 5895 5894 5894 5895 5895 5894
5868 5868 5869 5870 5871 5872 5873 5874 5875 5876 5877 5878 5879 5880 5882 5883 5885 5886 5887 5888 5889 5890 5891 5891 5892 5893 5894 5894 5895 5895 5895 5896 5896 5896 5897 5897 5897 5897 5898 5898 5898 5898 5899 5899 5899 5899 5899 5899 5899 5900 5900 5899 5899 5899 5899 5899 5899 5899 5899 5899 5898 5897 5896 5895 5895 5895 5895 5895 5895 5894 5894 5895 5895 5894 5894 5893 5893 5893 5894 5894 5895 5895 5895 5895 5894 5894 5894 5894
5867 5868 5869 5869 5871 5872 5873 5874 5874 5875 5876 5877 5879 5880 5881 5883 5884 5885 5887 5888 5889 5890 5891 5891 5892 5893 5894 5894 5895 5895 5895 5896 5896 5896 5897 5897 5897 5897 5898 5898 5898 5898 5899 5899 5899 5899 5899 5899 5899 5899 5899 5899 5899 5899 5899 5899 5899 5900 5900 5899 5899 5898 5897 5896 5895 5896 5895 5895 5894 5894 5894 5895 5894 5894 5894 5893 5893 5893 5893 5894 5894 5895 5895 5895 5894 5894 5894 5894
5866 5867 5868 5869 5870 5871 5872 5873 5874 5875 5876 5877 5878 5879 5881 5883 5884 5885 5886 5888 5889 5890 5890 5891 5892 5893 5894 5894 5895 5895 5895 5896 5896 5896 5896 5897 5897 5897 5898 5898 5898 5898 5898 5898 5899 5899 5899 5899 5899 5898 5898 5898 5899 5899 5898 5899 5900 5901 5900 5900 5899 5898 5897 5896 5896 5896 5896 5895 5894 5894 5894 5894 5894 5894 5893 5893 5893 5893 5893 5893 5894 5895 5895 5895 5895 5894 5893 5894
5866 5867 5868 5868 5869 5870 5871 5872 5873 5874 5875 5877 5878 5879 5881 5882 5883 5885 5886 5887 5888 5889 5890 5891 5891 5892 5893 5894 5894 5895 5895 5895 5896 5896 5896 5896 5897 5897 5897 5898 5898 5898 5898 5898 5898 5898 5899 5898 5898 5898 5898 5899 5899 5899 5898 5899 5901 5901 5900 5900 5899 5898 5898 5897 5896 5896 5896 5895 5894 5894 5894 5894 5894 5893 5893 5893 5893 5892 5892 5892 5893 5894 5894 5895 5895 5894 5893 5893
5865 5866 5867 5868 5869 5870 5871 5872 5873 5874 5875 5876 5877 5879 5880 5882 5883 5885 5886 5887 5888 5889 5890 5890 5891 5892 5893 5893 5894 5894 5895 5895 5895 5896 5896 5896 5896 5896 5897 5897 5897 5898 5898 5898 5898 5898 5898 5898 5898 5898 5898 5898 5898 5898 5898 5899 5901 5901 5900 5899 5899 5899 5898 5898 5897 5896 5896 5895 5895 5894 5893 5894 5894 5893 5893 5893 5893 5892 5892 5892 5892 5893 5893 5894 5894 5894 5893 5893
5865 5866 5867 5867 5868 5869 5870 5871 5872 5873 5874 5876 5877 5878 5880 5881 5883 5884 5885 5887 5888 5888 5889 5890 5891 5891 5892 5893 5893 5894 5894 5895 5895 5895 5895 5896 5896 5896 5896 5896 5897 5897 5897 5897 5897 5897 5897 5897 5897 5898 5898 5898 5898 5898 5898 5900 5901 5900 5900 5899 5899 5899 5899 5898 5898 5897 5896 5896 5895 5894 5893 5894 5894 5893 5893 5892 5892 5892 5892 5892 5892 5892 5892 5893 5893 5894 5893 5892
5864 5865 5866 5867 5868 5869 5870 5871 5872 5873 5874 5875 5876 5878 5879 5881 5882 5884 5885 5886 5887 5888 5889 5889 5890 5891 5892 5892 5893 5893 5894 5894 5894 5894 5895 5895 5895 5895 5895 5896 5896 5896 5896 5897 5897 5897 5897 5897 5897 5897 5897 5897 5898 5897 5898 5900 5900 5899 5899 5899 5899 5899 5899 5899 5898 5898 5897 5896 5895 5894 5894 5894 5894 5893 5893 5892 5892 5892 5892 5891 5891 5891 5892 5892 5892 5892 5892 5892
5864 5864 5865 5866 5867 5868 5869 5870 5871 5872 5873 5875 5876 5877 5879 5880 5882 5883 5884 5885 5886 5887 5888 5889 5889 5890 5891 5892 5892 5893 5893 5893 5894 5894 5894 5894 5894 5894 5894 5895 5895 5895 5895 5896 5896 5896 5896 5896 5897 5897 5896 5897 5897 5897 5898 5899 5899 5899 5899 5899 5899 5899 5899 5899 5898 5898 5897 5896 5895 5894 5894 5894 5894 5893 5893 5892 5892 5891 5891 5891 5891 5891 5891 5891 5891 5891 5891 5891
5863 5864 5865 5866 5867 5868 5869 5870 5871 5872 5873 5874 5875 5877 5878 5880 5881 5883 5884 5885 5885 5886 5887 5888 5889 5889 5890 5890 5891 5892 5892 5892 5893 5893 5893 5893 5893 5893 5893 5894 5894 5894 5895 5895 5895 5895 5895 5896 5896 5896 5896 5896 5897 5897 5898 5899 5899 5899 5899 5899 5899 5899 5899 5899 5898 5897 5896 5896 5895 5895 5894 5894 5894 5893 5893 5892 5891 5891 5891 5891 5891 5891 5890 5890 5890 5890 5890 5891
5862 5863 5864 5865 5866 5867 5868 5869 5870 5872 5873 5874 5875 5876 5878 5879 5881 5882 5883 5884 5884 5885 5886 5887 5888 5888 5889 5889 5890 5891 5891 5891 5891 5892 5892 5892 5892 5892 5892 5892 5893 5893 5894 5894 5894 5895 5895 5895 5895 5895 5896 5896 5896 5897 5897 5898 5898 5898 5899 5899 5899 5899 5899 5899 5898 5897 5896 5895 5895 5895 5894 5893 5893 5893 5892 5892 5891 5891 5890 5890 5890 5890 5890 5890 5890 5889 5890 5890
5862 5863 5864 5865 5866 5867 5868 5869 5870 5871 5872 5873 5875 5876 5877 5879 5880 5881 5882 5882 5883 5884 5885 5886 5886 5887 5887 5887 5888 5889 5889 5890 5890 5890 5890 5890 5891 5891 5891 5891 5891 5892 5892 5893 5893 5894 5894 5894 5894 5895 5895 5896 5896 5896 5896 5897 5897 5898 5899 5899 5899 5898 5898 5898 5898 5897 5896 5895 5895 5895 5894 5893 5893 5893 5892 5892 5891 5890 5890 5890 5890 5890 5890 5889 5889 5889 5889 5890
5862 5862 5863 5864 5865 5866 5867 5868 5869 5871 5872 5873 5874 5875 5877 5878 5879 5880 5881 5881 5882 5883 5884 5884 5885 5885 5885 5886 5887 5887 5888 5888 5888 5888 5889 5889 5889 5889 5889 5890 5890 5891 5891 5892 5892 5893 5893 5893 5893 5894 5895 5895 5895 5895 5896 5896 5896 5897 5898 5898 5898 5897 5897 5897 5897 5897 5896 5895 5894 5894 5894 5893 5893 5893 5892 5891 5891 5890 5889 5889 5888 5889 5888 5888 5888 5888 5888 5889
5861 5862 5863 5864 5864 5865 5866 5867 5869 5870 5871 5872 5873 5874 5875 5877 5878 5878 5879 5880 5881 5882 5883 5883 5884 5884 5884 5885 5885 5885 5886 5886 5886 5886 5887 5887 5887 5888 5888 5888 5889 5889 5890 5890 5891 5891 5892 5892 5893 5894 5894 5894 5894 5894 5894 5894 5895 5896 5896 5896 5896 5896 5896 5896 5895 5895 5895 5894 5893 5893 5893 5892 5893 5893 5892 5891 5890 5889 5888 5887 5887 5887 5887 5887 5887 5887 5887 5887
5861 5861 5862 5863 5864 5865 5865 5866 5867 5869 5870 5871 5872 5873 5874 5875 5876 5877 5878 5879 5880 5880 5881 5881 5882 5883 5883 5883 5883 5883 5884 5884 5884 5885 5885 5885 5886 5886 5887 5887 5887 5888 5888 5889 5890 5890 5891 5891 5892 5893 5893 5893 5893 5893 5893 5893 5894 5895 5896 5895 5895 5895 5896 5895 5895 5894 5894 5893 5892 5892 5892 5892 5892 5892 5892 5891 5890 5889 5888 5887 5886 5886 5885 5885 5885 5885 5885 5886
5860 5861 5861 5862 5863 5864 5864 5865 5866 5867 5868 5869 5871 5872 5873 5874 5875 5876 5876 5877 5878 5878 5879 5880 5880 5881 5881 5881 5881 5882 5882 5882 5883 5883 5884 5884 5884 5885 5885 5886 5886 5886 5887 5887 5888 5889 5889 5890 5891 5892 5892 5892 5891 5891 5891 5892 5894 5895 5895 5894 5895 5895 5895 5895 5894 5894 5893 5893 5892 5891 5891 5892 5892 5892 5891 5891 5890 5889 5888 5887 5886 5885 5884 5884 5884 5884 5884 5884
5859 5860 5860 5861 5862 5862 5863 5864 5865 5866 5867 5868 5869 5870 5871 5872 5873 5873 5874 5875 5876 5877 5877 5878 5878 5878 5879 5879 5879 5880 5881 5881 5881 5882 5882 5883 5883 5883 5884 5884 5885 5885 5886 5886 5887 5887 5888 5889 5890 5890 5890 5890 5890 5891 5891 5892 5893 5894 5894 5894 5894 5894 5895 5894 5894 5893 5893 5892 5892 5891 5891 5891 5891 5891 5891 5890 5890 5889 5888 5887 5886 5885 5884 5883 5883 5883 5883 5883
5858 5859 5859 5860 5860 5861 5862 5863 5863 5864 5865 5866 5867 5868 5869 5870 5870 5872 5873 5873 5874 5875 5875 5876 5876 5877 5877 5877 5877 5878 5879 5880 5880 5880 5881 5881 5882 5882 5883 5883 5884 5884 5885 5885 5885 5886 5887 5888 5888 5889 5889 5889 5890 5890 5891 5891 5892 5893 5893 5893 5893 5894 5894 5893 5893 5893 5892 5892 5892 5891 5891 5891 5891 5891 5890 5889 5889 5888 5888 5887 5886 5885 5884 5883 5882 5882 5882 5882
5857 5858 5858 5858 5859 5860 5860 5861 5862 5863 5864 5865 5866 5867 5867 5868 5869 5870 5871 5872 5872 5873 5874 5874 5874 5875 5875 5875 5876 5877 5878 5878 5879 5879 5879 5880 5880 5881 5881 5882 5882 5883 5884 5884 5884 5884 5885 5886 5887 5888 5888 5888 5888 5889 5890 5891 5891 5892 5892 5892 5893 5893 5893 5893 5893 5892 5892 5891 5891 5891 5891 5891 5890 5890 5889 5889 5888 5887 5886 5886 5885 5884 5884 5883 5882 5881 5881 5880
5856 5856 5857 5857 5858 5858 5859 5860 5861 5862 5862 5863 5864 5865 5865 5866 5867 5868 5869 5870 5870 5871 5872 5872 5873 5873 5873 5873 5874 5875 5876 5877 5877 5878 5878 5879 5879 5879 5880 5881 5882 5882 5882 5882 5882 5883 5884 5885 5886 5886 5887 5887 5888 5889 5889 5890 5891 5891 5891 5892 5892 5892 5892 5892 5892 5892 5891 5891 5891 5890 5890 5890 5890 5889 5888 5888 5887 5886 5885 5885 5884 5883 5883 5882 5881 5880 5879 5879
5854 5855 5855 5856 5856 5857 5858 5859 5859 5860 5861 5862 5862 5863 5864 5864 5865 5866 5867 5868 5868 5869 5870 5871 5871 5871 5871 5872 5873 5874 5875 5876 5876 5876 5877 5877 5878 5878 5879 5880 5880 5881 5881 5881 5881 5882 5883 5884 5885 5885 5886 5887 5888 5888 5889 5890 5890 5890 5891 5891 5891 5891 5891 5892 5891 5891 5890 5890 5890 5890 5890 5890 5889 5888 5887 5886 5886 5885 5884 5884 5883 5883 5882 5881 5880 5879 5878 5877
5853 5853 5854 5855 5855 5855 5856 5857 5858 5859 5860 5860 5861 5861 5862 5863 5863 5864 5865 5866 5867 5868 5868 5869 5869 5869 5870 5871 5871 5872 5874 5874 5874 5875 5876 5876 5877 5877 5878 5878 5879 5880 5880 5880 5881 5882 5882 5883 5884 5885 5885 5886 5887 5888 5888 5889 5889 5889 5890 5890 5891 5891 5891 5891 5890 5890 5890 5889 5889 5889 5889 5889 5888 5887 5886 5885 5884 5884 5883 5883 5882 5881 5881 5880 5879 5878 5877 5876
5852 5852 5853 5853 5854 5854 5855 5856 5857 5857 5858 5859 5859 5860 5860 5861 5862 5863 5863 5864 5865 5866 5866 5867 5867 5868 5868 5869 5870 5871 5872 5873 5873 5874 5874 5875 5876 5876 5877 5877 5878 5879 5879 5880 5880 5881 5882 5883 5883 5884 5885 5886 5887 5887 5887 5887 5888 5889 5889 5890 5890 5891 5891 5890 5889 5889 5889 5889 5889 5889 5888 5888 5887 5886 5885 5884 5884 5883 5883 5882 5881 5880 5879 5878 5877 5876 5875 5874
5850 5851 5852 5852 5852 5853 5853 5854 5855 5856 5856 5857 5858 5858 5859 5859 5860 5861 5862 5863 5863 5864 5864 5865 5866 5867 5867 5868 5869 5870 5871 5871 5872 5872 5873 5874 5874 5875 5876 5876 5878 5878 5879 5879 5879 5880 5881 5882 5882 5883 5884 5885 5886 5886 5886 5887 5888 5888 5888 5889 5890 5890 5889 5889 5889 5888 5888 5888 5888 5888 5887 5886 5886 5885 5884 5884 5883 5882 5881 5880 5879 5879 5878 5877 5876 5875 5874 5873
5849 5850 5850 5850 5851 5851 5852 5852 5853 5854 5855 5856 5857 5857 5857 5858 5858 5859 5860 5861 5862 5862 5863 5864 5865 5866 5866 5867 5868 5868 5869 5870 5870 5871 5872 5872 5873 5874 5875 5876 5877 5878 5878 5878 5878 5879 5880 5881 5881 5883 5884 5885 5885 5885 5886 5886 5887 5887 5888 5888 5888 5888 5888 5888 5888 5887 5887 5887 5887 5887 5886 5885 5885 5884 5884 5883 5882 5881 5880 5879 5878 5877 5876 5876 5875 5873 5873 5872
5848 5849 5849 5849 5849 5849 5850 5850 5851 5852 5854 5855 5855 5855 5856 5856 5857 5858 5859 5860 5860 5861 5862 5863 5864 5865 5865 5866 5867 5867 5868 5869 5869 5870 5871 5871 5872 5873 5874 5875 5876 5876 5877 5877 5878 5878 5879 5880 5881 5882 5884 5884 5885 5885 5886 5886 5886 5887 5887 5887 5887 5887 5887 5887 5887 5887 5886 5886 5886 5886 5885 5884 5884 5884 5883 5882 5881 5880 5879 5878 5877 5876 5875 5875 5874 5872 5871 5871
5848 5848 5848 5848 5848 5848 5848 5849 5849 5850 5852 5853 5854 5854 5854 5855 5855 5856 5858 5859 5860 5860 5861 5862 5863 5864 5864 5865 5866 5866 5867 5867 5868 5869 5870 5871 5871 5872 5873 5874 5875 5875 5876 5877 5877 5877 5878 5879 5880 5882 5883 5884 5885 5885 5886 5886 5886 5886 5886 5885 5885 5886 5886 5886 5886 5886 5886 5885 5885 5885 5884 5883 5883 5883 5882 5881 5879 5878 5878 5877 5876 5875 5874 5873 5872 5871 5870 5869
5847 5847 5848 5848 5847 5847 5847 5847 5848 5849 5850 5851 5852 5853 5853 5854 5855 5856 5857 5858 5859 5860 5861 5862 5862 5863 5864 5864 5865 5866 5866 5867 5868 5868 5869 5870 5870 5871 5872 5873 5874 5875 5876 5876 5877 5877 5878 5879 5880 5882 5883 5884 5884 5885 5885 5885 5885 5885 5884 5884 5884 5884 5884 5885 5885 5885 5885 5884 5884 5884 5883 5883 5882 5882 5881 5880 5878 5877 5877 5876 5875 5874 5873 5872 5871 5869 5868 5867
5847 5847 5847 5847 5847 5846 5846 5846 5847 5848 5849 5850 5851 5851 5852 5853 5854 5855 5856 5857 5859 5860 5860 5861 5862 5862 5863 5864 5865 5865 5865 5866 5867 5867 5868 5869 5870 5870 5871 5872 5873 5874 5875 5876 5877 5877 5878 5879 5881 5882 5883 5883 5883 5884 5884 5884 5884 5884 5883 5883 5883 5883 5883 5884 5884 5884 5884 5883 5883 5883 5883 5882 5882 5881 5880 5879 5878 5877 5876 5874 5874 5873 5871 5870 5868 5867 5866 5865
5846 5846 5846 5846 5846 5846 5846 5846 5846 5847 5848 5849 5849 5850 5851 5853 5854 5854 5855 5857 5859 5860 5860 5861 5861 5862 5863 5865 5865 5865 5865 5866 5866 5867 5868 5868 5869 5870 5871 5872 5873 5874 5875 5876 5877 5877 5878 5880 5881 5882 5882 5882 5883 5883 5883 5882 5882 5882 5882 5882 5882 5882 5882 5883 5883 5883 5883 5883 5882 5882 5882 5882 5881 5880 5879 5878 5877 5876 5875 5873 5872 5871 5870 5868 5866 5865 5865 5864
5845 5845 5845 5845 5845 5845 5845 5845 5845 5846 5847 5847 5848 5849 5850 5852 5852 5853 5855 5856 5858 5859 5860 5860 5861 5862 5863 5864 5864 5864 5864 5865 5865 5866 5867 5868 5869 5870 5870 5871 5872 5873 5874 5875 5876 5877 5878 5879 5880 5881 5881 5881 5881 5881 5881 5881 5881 5881 5881 5882 5882 5882 5882 5882 5882 5882 5882 5882 5882 5881 5881 5881 5881 5880 5878 5878 5876 5875 5873 5872 5870 5869 5868 5866 5865 5864 5863 5863
5844 5845 5845 5845 5845 5845 5845 5845 5845 5845 5846 5847 5847 5848 5849 5850 5851 5852 5854 5856 5857 5859 5859 5860 5860 5861 5862 5863 5863 5863 5864 5865 5865 5866 5867 5868 5868 5869 5869 5870 5871 5872 5873 5874 5875 5876 5877 5878 5879 5880 5880 5880 5880 5880 5880 5880 5880 5881 5881 5881 5881 5881 5882 5882 5882 5881 5881 5881 5881 5880 5880 5880 5880 5879 5878 5877 5876 5874 5872 5871 5869 5867 5866 5865 5864 5863 5862 5861
5844 5844 5844 5844 5844 5844 5844 5845 5845 5845 5845 5846 5847 5848 5848 5849 5850 5852 5853 5855 5856 5858 5859 5859 5860 5860 5861 5862 5863 5863 5864 5865 5865 5866 5867 5867 5867 5867 5867 5868 5869 5870 5871 5872 5873 5874 5875 5877 5877 5878 5879 5879 5879 5879 5879 5879 5880 5880 5880 5880 5881 5881 5881 5881 5881 5880 5880 5880 5880 5879 5879 5879 5878 5878 5877 5876 5875 5873 5871 5870 5868 5866 5865 5863 5862 5861 5860 5859
5843 5843 5844 5844 5844 5844 5844 5845 5845 5845 5845 5845 5846 5847 5847 5848 5849 5851 5852 5853 5855 5856 5858 5858 5859 5860 5860 5861 5862 5863 5863 5864 5864 5865 5866 5866 5865 5866 5866 5867 5868 5868 5868 5869 5871 5872 5874 5875 5876 5877 5877 5878 5878 5878 5879 5879 5879 5880 5879 5879 5879 5880 5880 5880 5879 5879 5879 5879 5878 5878 5878 5878 5877 5877 5876 5875 5874 5872 5871 5869 5867 5866 5864 5863 5861 5860 5859 5858
5842 5843 5844 5844 5844 5844 5844 5844 5845 5845 5845 5845 5846 5846 5846 5847 5848 5850 5851 5853 5854 5855 5856 5857 5858 5859 5860 5860 5860 5862 5862 5863 5864 5864 5865 5864 5864 5865 5865 5866 5867 5867 5868 5869 5870 5871 5872 5873 5874 5875 5876 5877 5877 5878 5878 5878 5878 5878 5878 5878 5878 5878 5878 5878 5878 5878 5878 5877 5877 5877 5877 5877 5876 5876 5875 5874 5873 5871 5870 5869 5867 5866 5864 5862 5860 5859 5857 5856
5842 5842 5843 5843 5844 5844 5844 5844 5844 5844 5845 5845 5845 5845 5846 5846 5847 5849 5850 5852 5853 5853 5854 5855 5856 5858 5859 5859 5860 5861 5862 5862 5863 5863 5863 5863 5863 5865 5865 5865 5866 5867 5867 5868 5870 5870 5871 5872 5873 5874 5875 5876 5876 5877 5877 5877 5877 5877 5877 5877 5877 5877 5877 5876 5877 5877 5877 5877 5876 5876 5876 5876 5875 5875 5874 5873 5872 5871 5870 5869 5867 5865 5864 5862 5860 5858 5856 5855
5842 5842 5842 5843 5843 5843 5843 5843 5843 5844 5844 5844 5844 5845 5845 5846 5847 5849 5850 5851 5851 5852 5853 5854 5855 5857 5858 5859 5860 5861 5861 5861 5861 5862 5862 5862 5863 5864 5865 5865 5865 5866 5867 5868 5869 5869 5870 5871 5872 5872 5874 5874 5874 5875 5875 5875 5875 5875 5875 5875 5875 5875 5875 5875 5876 5876 5876 5876 5875 5875 5875 5875 5874 5874 5873 5872 5871 5870 5869 5868 5866 5865 5863 5861 5859 5857 5855 5853
5842 5842 5842 5842 5842 5842 5843 5843 5843 5843 5843 5843 5843 5844 5845 5846 5847 5848 5849 5849 5850 5851 5852 5853 5854 5855 5856 5857 5859 5860 5860 5860 5861 5861 5862 5862 5862 5863 5864 5864 5864 5865 5866 5866 5867 5868 5868 5869 5870 5871 5872 5873 5873 5873 5874 5874 5874 5874 5874 5875 5875 5875 5874 5874 5875 5875 5875 5875 5874 5874 5874 5874 5873 5873 5872 5872 5871 5870 5868 5867 5865 5864 5863 5861 5858 5856 5854 5852
5841 5841 5841 5841 5842 5842 5842 5842 5842 5842 5842 5842 5843 5843 5844 5845 5846 5846 5847 5848 5849 5849 5850 5851 5851 5852 5854 5855 5857 5858 5859 5859 5859 5860 5861 5861 5861 5862 5863 5863 5864 5864 5864 5865 5866 5866 5866 5868 5869 5870 5871 5871 5871 5872 5872 5872 5873 5873 5873 5874 5874 5874 5874 5873 5874 5874 5874 5874 5873 5872 5872 5872 5872 5872 5871 5871 5870 5869 5868 5866 5865 5863 5862 5860 5857 5855 5853 5852
5841 5841 5841 5841 5841 5841 5841 5841 5841 5841 5841 5842 5842 5843 5844 5844 5844 5845 5845 5846 5847 5847 5848 5848 5849 5850 5851 5853 5854 5856 5857 5857 5858 5858 5859 5859 5859 5860 5861 5861 5862 5863 5863 5864 5865 5864 5865 5867 5868 5869 5869 5869 5870 5870 5871 5871 5871 5872 5872 5872 5873 5873 5873 5872 5872 5873 5873 5872 5871 5871 5871 5871 5871 5871 5870 5870 5869 5868 5867 5865 5864 5862 5861 5859 5857 5855 5853 5851
5840 5840 5840 5840 5840 5841 5841 5841 5840 5840 5841 5841 5841 5842 5843 5843 5843 5843 5843 5844 5845 5845 5846 5846 5847 5848 5849 5850 5852 5853 5854 5855 5855 5855 5856 5857 5858 5858 5859 5860 5860 5861 5862 5863 5863 5863 5864 5865 5865 5866 5867 5868 5868 5868 5869 5870 5870 5871 5871 5871 5871 5871 5871 5871 5871 5871 5871 5871 5870 5870 5869 5869 5870 5870 5869 5869 5869 5867 5866 5865 5863 5861 5859 5858 5856 5854 5852 5851
5840 5840 5840 5840 5840 5840 5840 5840 5840 5840 5840 5840 5840 5840 5841 5842 5842 5842 5842 5842 5843 5843 5844 5844 5845 5845 5846 5847 5848 5849 5850 5851 5852 5852 5854 5855 5856 5856 5857 5858 5858 5859 5860 5861 5861 5861 5861 5862 5863 5864 5865 5865 5865 5865 5866 5867 5868 5869 5869 5869 5870 5870 5870 5869 5869 5869 5869 5869 5869 5868 5867 5868 5869 5868 5868 5868 5867 5866 5865 5864 5862 5860 5858 5856 5855 5854 5852 5850
5839 5839 5839 5839 5839 5839 5839 5839 5839 5839 5839 5839 5839 5839 5839 5840 5840 5840 5840 5840 5840 5841 5841 5841 5842 5842 5842 5843 5844 5845 5846 5846 5847 5849 5850 5852 5853 5854 5854 5855 5856 5856 5857 5858 5858 5858 5859 5860 5861 5862 5862 5863 5863 5863 5863 5864 5865 5866 5867 5867 5867 5867 5867 5867 5867 5867 5867 5867 5867 5866 5865 5866 5867 5867 5867 5867 5866 5865 5864 5863 5861 5860 5857 5855 5854 5853 5851 5850
5839 5839 5838 5838 5838 5838 5838 5838 5838 5838 5838 5838 5838 5837 5837 5837 5837 5837 5838 5838 5837 5837 5838 5838 5838 5839 5839 5839 5839 5840 5841 5842 5843 5844 5846 5848 5849 5850 5851 5852 5852 5853 5854 5855 5855 5855 5856 5856 5857 5859 5860 5860 5861 5862 5862 5862 5863 5864 5865 5865 5865 5865 5865 5865 5865 5865 5864 5865 5865 5864 5864 5864 5865 5866 5865 5865 5865 5864 5863 5862 5861 5859 5857 5855 5853 5852 5851 5849
5838 5838 5838 5837 5837 5837 5837 5837 5837 5837 5836 5836 5836 5836 5836 5836 5836 5836 5836 5836 5835 5835 5835 5835 5836 5836 5836 5836 5836 5836 5837 5838 5839 5840 5841 5843 5845 5846 5848 5848 5848 5849 5850 5851 5852 5851 5852 5853 5854 5855 5856 5857 5858 5859 5859 5860 5861 5862 5862 5863 5863 5863 5863 5863 5862 5862 5862 5863 5862 5862 5862 5862 5863 5863 5864 5863 5863 5863 5862 5861 5860 5858 5856 5854 5853 5852 5851 5849
5837 5837 5836 5836 5836 5836 5836 5835 5835 5835 5835 5835 5834 5834 5833 5833 5833 5834 5834 5834 5833 5833 5833 5833 5833 5834 5834 5834 5834 5834 5834 5835 5835 5836 5837 5839 5840 5841 5843 5844 5845 5845 5846 5847 5848 5848 5848 5849 5850 5851 5853 5853 5854 5855 5856 5857 5858 5859 5860 5860 5861 5861 5861 5861 5860 5860 5860 5860 5860 5860 5860 5860 5860 5861 5861 5861 5861 5861 5860 5859 5858 5857 5855 5853 5852 5851 5850 5849
5836 5836 5835 5835 5835 5834 5834 5834 5834 5833 5833 5833 5833 5832 5832 5831 5831 5831 5831 5831 5831 5831 5831 5831 5831 5831 5832 5832 5832 5832 5833 5832 5833 5833 5833 5834 5835 5836 5837 5839 5841 5841 5841 5842 5843 5843 5844 5845 5846 5847 5848 5849 5850 5851 5852 5853 5854 5855 5856 5857 5858 5858 5858 5858 5858 5858 5858 5858 5858 5858 5858 5858 5858 5858 5859 5859 5859 5859 5858 5858 5857 5856 5854 5852 5851 5850 5850 5848
5835 5835 5834 5834 5833 5833 5833 5832 5832 5832 5832 5832 5831 5831 5830 5830 5829 5829 5829 5829 5829 5829 5829 5828 5828 5828 5828 5828 5829 5829 5829 5829 5830 5830 5830 5830 5831 5832 5832 5834 5835 5836 5837 5837 5838 5839 5840 5841 5842 5842 5843 5845 5846 5847 5848 5849 5850 5852 5853 5854 5854 5854 5855 5855 5855 5854 5854 5855 5856 5855 5855 5856 5856 5856 5856 5857 5857 5857 5856 5856 5855 5854 5853 5851 5850 5849 5848 5847